TimeAKDT,TemperatureF,Dew PointF,Humidity,Sea Level PressureIn,VisibilityMPH,Wind Direction,Wind SpeedMPH,Gust SpeedMPH,PrecipitationIn,Events,Conditions,WindDirDegrees,DateUTC
12:56 AM,54.9,47.8,77,29.82,10.0,ENE,6.9,-,N/A,,Clear,60,2013-06-26 08:56:00
1:56 AM,48.9,45.9,89,29.82,10.0,South,5.8,-,N/A,,Clear,180,2013-06-26 09:56:00
2:56 AM,46.9,43.9,89,29.82,10.0,South,6.9,-,N/A,,Clear,170,2013-06-26 10:56:00
3:56 AM,43.9,41.9,93,29.81,10.0,South,6.9,-,N/A,,Clear,180,2013-06-26 11:56:00
4:56 AM,41.9,39.9,93,29.81,4.0,SSW,6.9,-,N/A,,Clear,200,2013-06-26 12:56:00
5:07 AM,42.8,39.2,87,29.80,2.5,South,8.1,-,N/A,,Clear,190,2013-06-26 13:07:00
5:15 AM,42.8,39.2,87,29.80,8.0,South,6.9,-,N/A,,Clear,190,2013-06-26 13:15:00
5:56 AM,41.0,37.9,89,29.81,10.0,SSW,9.2,-,N/A,,Clear,200,2013-06-26 13:56:00
6:56 AM,41.0,36.9,85,29.81,10.0,SSW,9.2,-,N/A,,Clear,200,2013-06-26 14:56:00
7:56 AM,39.9,36.0,86,29.81,10.0,SSW,10.4,-,N/A,,Clear,210,2013-06-26 15:56:00
8:56 AM,38.8,34.9,86,29.80,10.0,SW,9.2,-,N/A,,Clear,230,2013-06-26 16:56:00
9:56 AM,41.0,36.9,85,29.81,10.0,SW,8.1,-,N/A,,Clear,230,2013-06-26 17:56:00
10:56 AM,39.9,36.0,86,29.82,10.0,WSW,8.1,-,N/A,,Clear,240,2013-06-26 18:56:00
11:56 AM,41.0,36.0,82,29.82,10.0,WSW,6.9,-,N/A,,Clear,250,2013-06-26 19:56:00
12:56 PM,41.9,37.9,86,29.82,10.0,WSW,6.9,-,N/A,,Clear,240,2013-06-26 20:56:00
1:56 PM,45.0,39.9,82,29.81,10.0,SW,6.9,-,N/A,,Clear,230,2013-06-26 21:56:00
2:56 PM,46.9,41.9,83,29.80,10.0,WSW,6.9,-,N/A,,Clear,240,2013-06-26 22:56:00
3:56 PM,45.9,41.0,83,29.81,10.0,West,9.2,-,N/A,,Clear,270,2013-06-26 23:56:00
4:56 PM,45.9,41.0,83,29.80,10.0,WNW,9.2,-,N/A,,Clear,290,2013-06-27 00:56:00
5:56 PM,47.8,41.9,80,29.79,10.0,West,6.9,-,N/A,,Clear,280,2013-06-27 01:56:00
6:56 PM,45.9,41.0,83,29.78,10.0,WNW,6.9,-,N/A,,Clear,300,2013-06-27 02:56:00
7:56 PM,47.8,41.9,80,29.79,10.0,Variable,4.6,-,N/A,,Clear,0,2013-06-27 03:56:00
8:56 PM,50.9,41.9,71,29.78,10.0,WNW,3.5,-,N/A,,Clear,290,2013-06-27 04:56:00
9:56 PM,50.9,43.9,77,29.77,10.0,NW,4.6,-,N/A,,Clear,310,2013-06-27 05:56:00
10:56 PM,52.9,45.0,74,29.77,10.0,NNW,5.8,-,N/A,,Partly Cloudy,340,2013-06-27 06:56:00
11:56 PM,50.9,43.9,77,29.76,10.0,North,3.5,-,N/A,,Clear,350,2013-06-27 07:56:00